Temp
64 63 63 63 63 63 63 62 62 63 63 63 63 63 63 62 62 66 70 81 81 79 81 85 83 84 83 74 76 75 63 62 71 75 75 82 79 85 86 80 83 85 81 81 83
64 63 63 63 63 63 62 62 62 62 62 62 62 63 62 62 63 66 80 82 80 79 84 83 83 83 71 73 71 67 62 71 80 83 81 84 82 81 78 78 78 80 84 84 83
63 63 63 63 62 62 62 62 62 62 61 62 62 62 62 62 63 75 81 82 79 79 84 87 86 82 71 72 70 70 66 77 81 82 87 84 82 85 78 73 77 76 80 83 82
63 63 63 63 62 61 62 62 62 61 61 61 62 62 62 61 66 83 81 81 80 80 83 85 83 74 69 70 73 67 75 77 82 83 85 83 83 80 80 79 84 83 83 82 79
63 62 62 63 62 61 61 61 61 61 61 61 62 63 59 61 73 82 81 80 79 81 82 81 80 74 68 75 73 68 74 81 84 85 87 88 82 80 79 84 85 85 84 81 81
62 61 61 62 62 61 61 61 60 60 61 62 63 62 59 63 85 82 79 76 80 80 81 82 82 82 74 76 72 78 77 80 83 86 89 83 81 82 81 85 83 83 81 82 82
61 61 61 61 61 61 61 60 60 60 61 63 64 67 64 71 86 81 81 77 80 80 79 84 89 80 78 73 82 81 74 79 81 83 79 84 75 74 83 85 81 81 82 83 82
61 61 60 60 60 60 60 59 60 61 62 65 65 62 63 85 82 86 81 79 83 82 82 86 87 81 78 80 79 74 70 63 78 79 79 78 64 78 83 81 79 81 83 83 80
61 61 60 59 59 59 58 59 61 62 64 66 59 57 66 84 83 84 85 83 81 82 82 96 84 75 77 69 63 65 59 68 71 80 72 71 65 74 78 74 78 79 80 80 80
60 60 60 59 59 58 57 59 62 63 65 72 75 63 73 78 81 86 85 88 83 81 81 77 70 66 66 62 56 60 62 65 70 72 73 67 65 72 75 75 78 76 79 79 80
60 60 59 59 58 57 55 60 65 64 62 67 67 72 80 84 86 82 87 84 80 75 64 69 62 58 67 68 72 73 71 70 71 76 73 68 64 68 74 70 74 74 76 79 79
61 60 59 59 58 57 52 61 68 71 63 74 76 77 83 85 78 83 85 74 73 66 66 64 58 68 74 74 73 72 68 69 74 77 73 69 68 71 74 73 75 75 75 79 79
59 60 59 58 57 56 60 69 77 73 59 71 77 75 77 80 77 78 81 75 69 65 64 60 68 76 75 72 74 64 66 67 69 76 76 70 64 66 72 74 75 76 77 79 81
59 59 58 57 61 58 66 75 75 73 52 64 67 77 78 77 72 87 84 79 70 68 67 64 75 75 72 71 70 53 74 75 74 67 60 72 54 61 71 69 73 76 75 76 81
59 59 57 57 50 59 75 71 74 71 46 71 70 82 79 74 73 77 86 75 69 69 66 65 69 68 70 72 75 70 78 75 75 65 66 66 59 63 70 67 70 75 78 79 81
59 58 57 55 50 59 65 69 70 54 48 67 75 71 68 68 75 77 77 76 77 69 66 68 76 73 73 79 78 80 73 67 64 61 55 63 61 59 63 70 73 76 77 81 83
57 56 56 61 61 66 67 65 52 46 68 63 64 66 63 65 67 72 70 64 60 52 53 65 68 73 79 70 73 69 58 49 48 48 50 62 59 67 74 78 78 77 76 81 84
56 55 55 59 58 65 65 58 44 62 64 70 66 62 63 66 66 69 65 61 65 60 53 52 55 68 76 69 65 61 59 49 45 45 52 61 55 68 81 85 83 82 79 78 82
55 56 56 63 64 65 60 47 51 61 70 68 65 59 57 66 67 65 62 61 66 64 56 51 56 72 77 75 72 62 56 62 52 47 50 54 63 70 72 76 81 79 80 78 81
51 53 60 74 68 64 54 48 56 68 71 67 57 62 57 62 60 60 60 67 68 71 65 60 53 63 74 74 70 66 68 54 50 44 42 50 50 55 60 69 75 72 76 78 81
53 57 69 74 71 59 48 50 62 72 72 66 60 58 59 61 61 57 61 67 69 68 66 55 54 60 65 60 61 61 56 55 53 50 46 43 48 62 60 67 69 70 70 72 73
53 53 71 73 57 51 50 59 64 70 74 69 68 64 62 61 59 57 61 66 70 67 62 58 53 48 58 70 71 64 61 55 48 49 47 49 49 63 64 65 68 66 69 70 71
49 53 70 71 51 51 56 64 68 68 68 67 66 69 65 58 54 60 63 68 71 65 62 60 49 46 54 61 64 59 61 56 52 48 47 49 48 63 65 63 66 66 66 67 69
50 49 58 62 57 54 53 57 61 72 70 69 68 66 60 57 59 57 59 68 67 65 69 64 52 49 45 50 59 58 63 63 55 47 47 50 52 56 60 62 65 65 66 66 66
51 50 56 50 53 53 52 57 59 61 68 67 62 64 59 51 56 57 59 60 66 66 61 59 50 52 55 61 61 65 65 65 57 55 51 54 54 54 57 63 63 65 66 66 65
49 50 53 50 53 51 51 53 59 62 62 62 59 65 61 55 57 59 59 52 57 58 59 57 51 50 53 63 63 62 67 66 65 61 58 55 55 60 61 64 62 63 63 63 65
55 56 53 49 50 50 51 57 60 60 65 68 65 61 61 64 68 67 64 60 61 60 57 56 52 47 42 59 58 53 62 62 61 62 59 53 56 61 60 61 61 62 63 62 66
MSLP
1016.75 1016.33 1015.94 1015.58 1015.18 1014.66 1014.24 1013.93 1013.61 1013.29 1012.83 1012.58 1012.23 1011.85 1011.53 1011.28 1010.48 1010.24 1009.26 1007.42 1007.23 1007.38 1007.48 1007.74 1008.43 1008.74 1009.47 1011.15 1011.40 1010.37 1010.63 1009.02 1007.07 1006.10 1005.68 1005.65 1006.11 1007.51 1007.51 1008.44 1009.19 1009.17 1009.77 1010.46 1011.51
1016.60 1016.27 1015.92 1015.48 1015.05 1014.58 1014.12 1013.68 1013.37 1013.12 1012.88 1012.46 1012.18 1011.87 1011.50 1011.32 1010.65 1009.21 1007.07 1006.80 1007.00 1007.25 1007.50 1007.72 1007.97 1008.08 1009.37 1010.03 1010.22 1010.42 1009.87 1008.26 1006.74 1005.78 1005.35 1005.41 1005.65 1006.93 1008.08 1008.87 1009.54 1009.83 1010.28 1010.86 1011.64
1016.35 1015.91 1015.58 1015.24 1014.86 1014.43 1013.92 1013.43 1013.10 1012.93 1012.68 1012.35 1011.93 1011.55 1011.37 1011.25 1010.40 1007.60 1006.29 1006.68 1006.94 1007.22 1007.38 1007.42 1007.71 1007.95 1008.91 1009.72 1010.27 1010.29 1009.28 1007.88 1006.17 1005.88 1005.58 1005.13 1005.95 1006.61 1007.59 1008.81 1008.78 1009.49 1010.12 1010.80 1011.70
1016.33 1015.82 1015.36 1014.96 1014.59 1014.17 1013.65 1013.19 1012.82 1012.59 1012.33 1012.13 1011.83 1011.46 1011.19 1010.96 1009.06 1006.51 1006.40 1006.57 1006.81 1007.08 1007.29 1007.17 1007.54 1008.00 1008.57 1009.13 1009.59 1009.70 1008.45 1007.74 1006.28 1005.84 1005.75 1005.44 1006.13 1006.89 1006.98 1008.02 1008.63 1009.32 1009.80 1010.51 1011.38
1016.28 1015.78 1015.23 1014.73 1014.38 1014.06 1013.53 1013.00 1012.57 1012.31 1012.10 1011.75 1011.52 1011.29 1011.06 1010.06 1007.50 1006.05 1006.39 1006.66 1006.83 1006.98 1007.01 1007.01 1007.16 1007.71 1007.95 1007.70 1008.80 1008.99 1007.93 1007.07 1006.30 1005.55 1005.12 1005.56 1005.93 1006.82 1007.80 1008.44 1009.06 1009.43 1010.13 1010.62 1011.11
1016.09 1015.62 1015.22 1014.57 1014.13 1013.68 1013.14 1012.80 1012.33 1012.09 1011.85 1011.60 1011.30 1011.24 1010.88 1008.76 1005.65 1005.82 1006.34 1006.81 1006.64 1006.74 1006.60 1006.69 1006.52 1006.55 1007.12 1007.13 1007.61 1007.35 1007.28 1006.28 1005.75 1005.17 1004.52 1005.32 1006.38 1006.85 1008.60 1008.80 1009.43 1009.75 1010.10 1010.55 1010.93
1015.95 1015.40 1014.93 1014.47 1013.83 1013.31 1012.75 1012.23 1012.01 1011.75 1011.55 1011.33 1011.11 1011.01 1010.14 1007.03 1005.48 1005.80 1006.06 1006.48 1006.17 1006.12 1006.40 1006.31 1006.05 1006.30 1006.73 1007.46 1006.62 1006.38 1007.20 1006.80 1006.66 1006.30 1007.44 1007.27 1007.83 1008.20 1008.67 1009.15 1009.65 1009.97 1010.05 1010.30 1010.77
1015.85 1015.25 1014.70 1014.15 1013.72 1013.13 1012.34 1011.77 1011.46 1011.33 1011.19 1011.02 1011.01 1010.77 1008.71 1005.54 1005.41 1005.95 1005.95 1005.99 1005.95 1006.16 1006.21 1005.76 1005.62 1005.81 1006.36 1007.02 1007.11 1007.12 1007.72 1007.84 1007.62 1007.31 1008.08 1007.94 1009.40 1009.51 1009.64 1009.62 1009.83 1009.99 1009.94 1010.12 1010.60
1015.68 1015.07 1014.41 1013.88 1013.39 1012.75 1011.93 1011.22 1010.78 1010.64 1010.80 1010.85 1010.89 1010.29 1007.70 1005.37 1005.31 1005.14 1005.38 1005.59 1005.64 1005.80 1005.93 1005.52 1005.46 1006.18 1006.52 1007.06 1007.72 1007.95 1007.63 1007.62 1007.79 1007.60 1008.02 1011.18 1010.66 1010.26 1009.97 1010.43 1010.08 1010.00 1010.05 1010.00 1010.31
1015.50 1014.84 1014.11 1013.51 1013.13 1012.51 1011.44 1010.48 1010.17 1010.20 1010.63 1010.48 1010.10 1009.82 1007.10 1005.42 1004.81 1004.74 1004.95 1005.24 1005.69 1005.53 1005.72 1005.75 1006.48 1007.01 1007.52 1007.75 1007.87 1007.54 1007.48 1007.27 1007.52 1008.68 1008.72 1010.59 1011.05 1010.40 1009.90 1010.49 1010.15 1009.88 1010.02 1010.07 1010.21
1015.39 1014.75 1013.97 1013.24 1012.76 1012.38 1011.46 1010.39 1010.42 1010.18 1009.73 1008.92 1008.37 1007.77 1006.08 1004.90 1004.46 1004.68 1004.62 1005.07 1005.49 1005.98 1006.53 1006.63 1007.57 1007.51 1007.07 1007.25 1006.87 1006.79 1006.89 1006.74 1007.11 1007.79 1008.88 1009.11 1009.80 1010.03 1009.80 1010.15 1010.15 1009.97 1010.06 1010.04 1010.10
1014.88 1014.31 1013.62 1012.92 1012.26 1012.00 1012.12 1010.95 1009.26 1008.60 1008.38 1007.32 1006.91 1006.55 1005.47 1004.91 1004.79 1004.69 1004.64 1005.37 1005.63 1006.40 1006.84 1007.55 1007.53 1006.86 1006.52 1006.64 1006.60 1006.59 1006.43 1006.93 1007.54 1007.44 1007.94 1009.28 1009.34 1009.56 1009.93 1009.60 1009.88 1009.50 1009.84 1009.97 1010.01
1014.64 1014.08 1013.39 1012.40 1011.59 1011.55 1011.14 1009.53 1007.61 1008.04 1008.36 1006.63 1005.69 1005.34 1004.70 1004.54 1004.63 1004.59 1004.87 1005.26 1005.80 1006.51 1007.03 1007.49 1006.45 1006.25 1006.47 1005.86 1006.01 1006.18 1006.04 1006.13 1006.30 1006.79 1007.87 1008.70 1009.72 1009.66 1009.64 1009.38 1009.28 1008.95 1009.17 1009.40 1009.61
1014.65 1014.09 1013.45 1012.15 1011.23 1011.48 1009.96 1007.87 1007.40 1007.91 1008.24 1006.47 1005.12 1004.29 1004.22 1004.49 1004.59 1004.24 1004.47 1005.24 1005.84 1006.27 1006.80 1006.98 1005.73 1005.95 1005.73 1005.71 1005.46 1005.63 1005.41 1005.69 1006.30 1007.38 1008.64 1008.33 1009.21 1008.88 1008.94 1008.36 1008.13 1008.11 1008.52 1008.84 1009.30
1014.49 1014.00 1013.57 1013.33 1012.91 1011.60 1008.69 1008.04 1007.67 1007.65 1007.71 1005.55 1004.62 1003.46 1003.91 1004.66 1004.63 1004.33 1004.28 1005.05 1005.70 1006.12 1006.72 1006.31 1005.68 1005.41 1005.12 1004.70 1004.66 1004.74 1004.67 1005.50 1006.13 1007.13 1008.08 1008.45 1008.40 1007.33 1007.79 1008.12 1007.28 1007.34 1007.35 1008.08 1008.78
1014.00 1013.67 1013.40 1013.12 1012.85 1009.92 1008.87 1008.23 1008.00 1008.71 1006.84 1005.20 1004.09 1004.00 1004.65 1004.81 1004.69 1004.52 1004.83 1005.05 1005.36 1006.07 1006.28 1005.91 1005.01 1004.89 1004.15 1003.67 1003.69 1004.11 1005.21 1006.23 1006.95 1008.13 1008.54 1007.83 1008.03 1007.08 1006.84 1005.58 1005.87 1006.05 1006.41 1007.01 1007.94
1013.33 1012.87 1013.27 1012.63 1010.58 1008.95 1008.92 1008.99 1009.45 1008.21 1006.10 1005.29 1004.67 1004.53 1004.92 1005.10 1005.08 1005.16 1005.43 1005.81 1006.38 1006.68 1006.94 1005.91 1004.95 1004.14 1003.69 1003.50 1003.56 1004.46 1006.22 1007.61 1008.89 1009.32 1008.84 1007.57 1007.71 1005.83 1004.54 1004.00 1003.75 1004.82 1005.68 1005.67 1006.41
1012.72 1011.74 1011.17 1010.68 1009.29 1009.54 1009.58 1009.97 1009.60 1007.67 1006.19 1004.78 1004.71 1004.97 1005.26 1005.19 1005.38 1005.62 1005.79 1006.35 1006.41 1007.02 1007.57 1007.00 1005.46 1004.18 1003.39 1003.45 1003.88 1004.98 1006.39 1008.09 1009.42 1010.23 1009.15 1008.11 1006.85 1004.65 1003.04 1001.95 1002.64 1003.40 1004.32 1005.44 1005.68
1012.09 1011.10 1010.83 1008.52 1008.81 1009.73 1010.42 1010.72 1009.31 1007.35 1006.02 1005.60 1005.01 1005.50 1005.52 1005.19 1005.49 1005.85 1006.11 1006.28 1006.09 1006.56 1007.33 1006.92 1005.69 1004.12 1003.48 1003.38 1003.96 1005.17 1006.40 1007.31 1009.05 1010.09 1009.92 1008.50 1006.70 1004.47 1004.11 1002.52 1002.69 1004.01 1004.59 1005.51 1005.66
1012.69 1011.69 1009.64 1007.32 1008.45 1009.48 1010.65 1010.40 1008.68 1006.86 1006.04 1005.38 1005.22 1005.21 1005.50 1005.26 1005.80 1006.01 1006.15 1005.54 1005.63 1005.79 1006.19 1006.82 1006.51 1004.94 1003.73 1003.66 1004.39 1004.96 1006.04 1007.99 1009.38 1010.61 1010.76 1009.71 1008.96 1008.42 1006.75 1005.35 1004.17 1004.98 1005.73 1006.12 1006.31
1012.63 1011.44 1007.79 1007.19 1008.31 1010.10 1010.98 1009.99 1008.06 1006.35 1006.07 1005.58 1004.86 1005.03 1005.34 1005.68 1005.63 1005.59 1005.70 1005.18 1005.21 1005.49 1005.83 1006.60 1007.03 1006.07 1004.69 1004.43 1005.13 1005.73 1006.50 1007.97 1009.30 1010.12 1010.84 1011.09 1010.96 1010.72 1009.71 1007.69 1007.59 1007.36 1007.45 1007.82 1008.13
1013.19 1011.74 1007.72 1007.47 1009.45 1010.15 1010.35 1008.99 1007.59 1006.26 1005.64 1005.40 1004.46 1004.54 1004.81 1005.06 1005.37 1005.55 1005.03 1004.70 1004.61 1005.05 1006.17 1006.63 1007.58 1007.72 1006.57 1004.93 1004.63 1005.60 1006.42 1007.75 1009.64 1010.54 1010.86 1010.98 1012.04 1011.79 1011.15 1009.90 1009.35 1009.83 1009.85 1009.58 1009.72
1014.26 1012.03 1007.92 1008.13 1009.29 1010.12 1009.43 1008.68 1007.76 1006.61 1005.79 1005.21 1004.63 1004.36 1004.33 1004.88 1005.26 1005.12 1004.90 1004.72 1004.65 1005.11 1006.06 1006.68 1008.13 1008.44 1007.48 1006.50 1006.11 1006.38 1006.60 1007.02 1008.39 1009.65 1010.75 1011.55 1012.32 1012.37 1011.54 1011.31 1010.83 1010.93 1011.43 1011.09 1010.53
1014.91 1013.09 1010.08 1008.79 1009.29 1009.79 1010.02 1008.83 1007.76 1006.56 1005.64 1005.11 1004.67 1004.10 1004.48 1004.68 1004.93 1005.22 1005.21 1005.02 1005.07 1005.35 1005.92 1006.46 1008.30 1009.00 1008.95 1008.62 1008.15 1007.44 1006.98 1006.87 1007.70 1009.49 1010.70 1011.03 1011.92 1012.70 1012.16 1012.27 1011.84 1012.61 1012.27 1012.69 1012.56
1014.91 1013.53 1011.71 1011.03 1010.73 1010.83 1010.28 1009.17 1008.18 1007.04 1005.87 1005.31 1004.81 1004.25 1004.66 1005.03 1004.75 1005.24 1005.70 1005.53 1005.67 1005.90 1006.28 1007.04 1008.73 1008.91 1008.75 1008.42 1007.80 1007.34 1007.00 1006.59 1007.35 1008.17 1009.58 1010.58 1011.31 1012.43 1013.00 1012.53 1013.49 1013.74 1013.62 1013.72 1014.39
1015.05 1013.97 1012.78 1012.08 1011.32 1010.99 1010.22 1009.49 1008.68 1007.64 1007.18 1006.20 1005.89 1005.23 1004.69 1004.96 1005.13 1005.26 1005.44 1005.77 1006.01 1006.57 1007.01 1007.79 1008.92 1009.07 1009.07 1008.28 1007.97 1007.50 1007.07 1006.72 1006.90 1007.90 1008.87 1010.23 1010.97 1012.23 1013.08 1013.36 1013.85 1013.87 1013.69 1014.42 1015.07
1014.02 1013.54 1013.42 1012.64 1012.03 1011.59 1010.61 1009.90 1009.28 1008.67 1007.21 1006.58 1005.90 1005.63 1005.47 1005.02 1004.60 1004.81 1004.69 1005.25 1005.55 1006.39 1007.51 1008.29 1009.21 1010.24 1010.07 1008.92 1008.39 1007.90 1007.68 1007.65 1008.25 1008.36 1008.85 1010.06 1010.60 1011.48 1012.43 1013.02 1013.53 1013.82 1013.26 1015.18 1017.39
Wind_Speed
17 16 16 17 17 17 17 16 15 15 16 15 16 17 16 15 17 4 4 9 5 11 6 5 4 5 6 8 7 3 1 4 3 2 10 13 15 13 9 19 10 2 10 8 19
18 17 16 17 17 16 17 17 16 15 14 15 14 14 14 13 4 4 8 6 6 12 4 4 3 4 4 3 1 3 2 3 3 6 12 17 23 17 11 16 14 13 10 16 18
16 18 18 18 18 17 17 17 17 16 14 14 14 14 12 9 2 6 10 8 5 6 1 1 1 4 4 3 1 3 4 2 6 5 4 18 20 18 20 16 23 20 15 16 19
16 16 19 19 19 19 19 19 18 17 15 13 12 11 11 2 5 3 10 9 7 3 2 3 3 3 3 4 5 1 9 7 6 2 3 9 18 18 18 12 21 19 17 9 10
17 16 17 19 19 19 20 20 18 16 14 12 10 8 3 2 7 6 11 9 6 4 4 2 2 5 3 5 9 7 6 10 7 11 5 5 15 11 14 19 18 18 16 13 13
17 19 16 19 19 18 19 18 17 15 12 10 8 3 1 2 2 10 10 6 6 5 4 5 4 2 2 4 4 8 7 12 8 14 10 16 21 13 15 19 18 17 15 13 14
19 18 19 17 18 19 19 19 17 14 10 8 3 3 1 9 2 8 11 8 5 6 2 4 5 2 7 2 10 2 4 7 1 16 6 6 13 10 18 18 17 15 15 14 11
21 20 20 21 20 20 20 20 18 13 8 4 1 1 7 6 5 5 5 3 4 5 4 9 5 4 5 4 2 8 4 1 8 6 13 9 8 13 6 15 14 14 13 12 10
21 21 22 21 21 22 22 22 17 9 6 3 1 1 8 11 4 6 7 4 4 5 7 8 5 2 3 3 2 3 5 8 1 3 13 7 3 4 5 7 11 11 8 9 12
18 23 24 23 22 23 25 20 3 2 4 4 4 4 5 4 3 3 6 5 4 2 6 2 5 3 3 4 5 6 3 1 9 10 16 13 4 6 4 7 9 4 8 10 13
19 21 24 24 23 22 14 3 5 4 1 8 5 4 6 3 1 2 5 3 2 5 3 2 4 6 11 7 5 4 3 5 3 11 10 9 11 13 15 8 7 5 7 12 13
24 24 25 25 25 22 1 1 7 2 7 9 10 7 8 7 3 6 5 3 4 5 1 6 6 12 8 6 7 5 7 7 5 3 5 7 9 9 14 17 10 8 4 10 11
20 24 24 28 28 1 3 7 7 6 2 8 6 5 5 5 6 8 8 3 2 4 4 7 12 6 6 9 8 4 7 6 8 4 5 9 4 4 8 7 9 7 6 6 15
20 21 22 28 3 6 5 6 8 5 6 7 2 6 3 3 4 7 8 5 2 8 5 6 11 8 7 7 7 4 8 6 10 9 6 8 5 6 8 8 9 13 8 9 11
21 23 18 9 5 3 6 9 8 7 3 3 4 2 6 8 2 3 6 3 5 6 5 10 4 4 7 9 6 10 14 14 10 9 6 8 0 7 10 11 12 15 14 12 7
24 19 15 2 1 10 9 9 6 7 3 3 5 5 6 2 5 2 4 1 2 3 2 10 5 4 8 8 5 6 4 6 4 4 1 8 6 5 10 16 16 14 8 12 11
25 24 6 4 6 2 6 6 6 4 4 5 6 5 5 5 1 5 7 4 4 2 4 9 6 5 5 5 5 8 7 4 4 3 7 7 4 13 11 20 22 23 14 16 12
26 28 5 7 6 3 5 6 2 4 6 4 5 4 7 6 5 7 6 4 5 5 1 2 8 4 2 5 7 1 8 7 6 5 7 5 7 10 16 17 22 25 24 11 13
23 3 2 6 9 3 7 4 7 5 4 8 5 5 4 5 6 6 7 8 9 8 8 3 6 4 5 4 8 4 1 8 7 3 3 5 9 6 25 6 16 22 19 17 18
4 4 5 4 8 6 6 5 5 3 6 5 1 5 8 7 6 7 8 6 6 8 7 7 3 4 7 5 2 7 5 1 4 3 5 5 2 9 27 8 15 11 12 14 14
3 5 6 7 6 6 3 7 6 8 4 5 1 2 3 4 8 8 11 4 3 3 6 3 5 10 2 5 8 3 1 4 5 6 6 0 3 7 14 15 17 17 16 10 8
3 3 4 3 3 1 3 5 4 9 15 9 3 4 5 2 4 5 11 9 5 4 6 3 6 1 5 8 6 7 7 6 7 6 2 4 1 6 10 15 19 17 16 16 15
3 5 6 7 3 4 6 6 7 10 8 7 5 6 2 2 2 3 5 2 6 5 8 5 2 4 12 8 9 6 4 6 5 4 4 5 4 1 9 13 16 18 15 15 16
3 4 6 5 1 3 5 6 5 7 7 4 8 5 2 3 5 4 2 3 2 5 6 8 3 8 7 6 4 6 10 7 8 4 5 5 7 3 9 11 16 15 15 14 12
1 5 4 3 4 5 2 4 6 7 2 7 7 5 4 3 3 6 2 4 5 5 4 7 5 4 6 5 2 5 9 8 5 6 5 6 7 8 6 12 14 13 13 13 10
2 2 6 4 4 2 2 3 4 7 6 7 3 12 3 5 4 5 7 3 6 1 4 2 3 3 2 2 4 6 10 12 6 8 9 8 4 7 7 11 13 14 15 12 9
3 4 4 5 4 3 4 4 8 9 5 5 5 4 9 4 4 4 6 5 9 9 4 5 5 4 3 2 4 5 4 5 8 5 12 7 7 6 11 13 13 13 15 10 9
Wind_Direction
354 349 345 343 340 336 336 333 330 329 327 324 324 322 322 322 310 163 239 220 178 159 182 129 188 159 141 122 174 310 91 298 293 107 142 140 131 144 117 133 148 140 114 148 133
353 350 344 340 337 334 332 330 329 328 326 323 321 320 320 331 295 263 240 174 152 149 146 156 147 197 81 106 97 123 78 264 276 51 130 142 127 133 131 143 119 120 108 126 140
340 346 344 340 338 333 330 329 328 328 327 325 324 321 321 322 287 249 181 166 148 164 174 193 261 160 96 111 157 129 224 286 306 344 300 139 140 139 134 148 150 150 145 137 142
335 333 340 338 337 334 330 328 327 328 327 326 323 321 321 270 155 145 148 150 149 199 190 192 193 120 113 144 158 171 260 273 282 19 347 162 127 151 149 160 147 143 143 138 144
339 331 335 334 334 332 326 324 324 325 325 324 323 328 333 3 253 142 134 141 134 163 213 160 103 129 206 196 136 189 246 247 255 256 230 211 143 118 122 138 138 142 152 163 167
338 337 329 333 332 325 318 318 318 321 320 318 309 318 16 311 162 136 134 141 157 181 212 186 214 132 220 242 136 183 232 281 349 356 65 130 125 120 143 142 147 156 166 178 176
341 334 329 317 321 322 318 315 315 313 311 305 313 259 49 238 224 156 149 176 209 179 168 231 254 147 140 39 264 283 80 309 303 69 44 41 96 119 143 149 156 171 183 186 179
340 333 329 324 326 323 317 313 310 300 292 288 116 258 244 255 214 173 189 198 232 240 228 274 246 113 152 185 53 321 73 55 152 233 49 45 105 120 121 158 171 188 191 190 167
337 333 330 329 328 327 317 311 304 276 234 227 75 81 275 312 211 195 170 218 209 246 238 261 70 154 31 81 41 162 245 135 115 153 76 311 236 254 44 345 187 201 204 168 159
334 334 332 329 329 328 322 307 232 310 185 201 259 335 281 232 214 215 195 213 244 116 5 86 56 50 52 99 201 207 214 164 158 161 128 167 213 272 288 289 215 202 204 169 162
334 334 331 329 328 330 340 9 17 16 133 198 197 230 270 256 64 246 217 145 201 82 166 269 84 205 223 182 230 279 197 178 97 147 126 167 166 214 230 224 225 222 216 181 171
335 336 333 326 324 323 236 57 211 194 314 239 235 248 266 220 144 267 102 145 137 191 180 13 228 234 240 234 241 267 212 113 55 191 112 179 212 190 216 225 225 172 205 201 172
330 334 332 328 319 105 189 243 262 47 48 293 213 194 230 135 187 225 127 178 110 201 191 167 240 230 227 276 284 214 192 200 159 166 32 130 306 208 227 206 212 200 200 224 184
327 331 335 329 9 321 277 270 316 150 58 282 173 261 177 137 293 211 179 141 230 202 217 215 257 231 248 249 176 236 212 167 134 76 261 193 230 225 215 202 213 205 203 201 201
327 329 332 329 296 295 269 341 323 56 49 175 215 196 164 160 233 257 173 114 233 262 57 257 278 252 235 234 178 239 164 179 170 164 142 207 27 242 154 209 228 226 220 203 214
324 323 331 64 198 244 319 321 43 50 276 230 163 154 98 234 268 120 155 352 174 242 218 236 242 199 218 247 207 144 100 47 63 153 148 226 152 256 183 209 206 231 223 186 230
318 312 296 279 229 11 318 41 49 126 329 201 182 163 157 228 188 170 173 208 176 36 325 320 283 276 241 176 351 75 65 8 5 26 217 235 147 236 206 222 194 201 220 205 200
318 313 221 210 250 345 37 52 128 246 244 236 158 128 171 184 224 201 143 197 257 114 62 211 325 161 277 167 171 168 138 150 189 184 244 107 227 252 228 230 203 186 204 222 198
316 328 224 249 208 98 71 80 210 230 335 356 56 114 254 228 178 144 195 203 212 167 180 189 277 286 224 204 115 288 61 188 111 345 49 262 302 323 357 205 178 179 180 195 172
327 340 269 203 129 72 77 231 253 269 323 338 171 161 195 227 147 155 193 221 231 188 159 225 289 244 261 127 100 142 177 103 6 176 225 301 57 326 339 336 105 89 150 158 167
18 3 261 144 78 54 163 231 285 280 312 341 239 286 159 234 197 193 199 238 144 131 122 127 103 292 64 144 181 5 22 68 125 139 160 261 293 350 2 45 76 77 72 71 48
358 356 291 52 85 177 182 215 255 291 311 290 260 199 203 257 261 245 187 186 176 157 132 193 133 320 270 290 170 159 183 140 121 268 119 155 248 312 12 44 63 57 54 66 62
340 266 293 112 172 260 275 274 257 280 278 250 240 208 205 242 311 229 130 255 163 110 159 193 32 27 341 358 7 27 314 156 125 84 182 120 221 115 66 53 53 48 35 36 47
357 335 312 36 39 125 358 286 298 289 278 313 241 110 16 281 179 198 180 172 118 115 110 87 112 145 186 195 241 308 314 260 122 102 168 200 137 106 70 79 75 60 49 23 17
167 253 234 293 333 327 273 283 318 326 318 346 311 168 147 302 299 158 220 95 36 154 75 104 139 150 202 210 299 298 314 322 172 162 133 197 179 148 177 101 101 99 72 64 352
257 8 343 284 279 315 290 266 287 320 358 319 358 329 226 151 209 216 152 170 180 214 114 31 184 137 251 282 10 309 347 28 74 116 101 141 105 132 148 123 114 108 104 71 24
293 335 107 269 318 15 243 333 336 355 309 335 304 19 352 172 151 348 186 161 171 145 132 112 120 87 250 302 30 343 83 96 63 18 139 152 186 135 95 92 103 100 98 106 192